Dubuque, IA

12:15 PM CDT on October 20, 2019 (GMT -0500)
Dubuque Regional

Weather History for KDBQ - August, 2019

Change the Weather History Date:

Wednesday, August 28, 2019

  Actual Average Record
Temperature  
Mean Temperature 62 °F 68 °F  
Max Temperature 73 °F 78 °F 97 °F (1984)
Min Temperature 51 °F 59 °F 40 °F (1986)
Degree Days  
Heating Degree Days 2 1  
Month to date heating degree days 5 13  
Since 1 June heating degree days 34 61  
Since 1 July heating degree days 5 21  
Cooling Degree Days 0 4  
Month to date cooling degree days 119 164  
Year to date cooling degree days 572 564  
Since 1 June cooling degree days 546 527  
Growing Degree Days 12 (Base 50)    
Moisture  
Dew Point 53 °F    
Average Humidity 74    
Maximum Humidity 96    
Minimum Humidity 49    
Precipitation  
Precipitation 0.00 in 0.14 in 2.80 in (1887)
Month to date precipitation 5.02 3.99  
Year to date precipitation 31.13 25.57  
Snow  
Snow 0.00 in 0.00 in - ()
Month to date snowfall 0.0 0.0  
Since 1 June snowfall 0.0 0.0  
Since 1 July snowfall 0.0 0.0  
Snow Depth 0.00 in    
Sea Level Pressure  
Sea Level Pressure 29.96 in    
Wind  
Wind Speed 9 mph ()    
Max Wind Speed 28 mph    
Max Gust Speed 38 mph    
Visibility 10.0 miles    
Events      
T = Trace of Precipitation, MM = Missing Value Source: Averaged Metar Reports

Daily Weather History Graph

Daily Weather History Graph

Search for Another Location

Airport or City:

Astronomy

Aug. 28, 2019 Rise Set
Actual Time 6:23 AM CDT 7:43 PM CDT
Civil Twilight 5:54 AM CDT 8:13 PM CDT
Nautical Twilight 5:19 AM CDT 8:48 PM CDT
Astronomical Twilight 4:41 AM CDT 9:24 PM CDT
Moon 3:52 AM CDT (8/28) 6:59 PM CDT (8/28)
Length of Visible Light 14h 18m
Length of Day
13h 20m
Waning Crescent, 4% of the Moon is Illuminated
Aug 28
Waning Crescent
Aug 30
New
Sep 5
First Quarter
Sep 13
Full
Sep 21
Last Quarter

Hourly Weather History & Observations

Time (CDT) Temp. Dew Point Humidity Pressure Visibility Wind Dir Wind Speed Gust Speed Precip Events Conditions
12:53 AM 55.9 °F 51.1 °F 84% 29.91 in 10.0 mi WSW 8.1 mph - N/A   Clear
1:53 AM 54.0 °F 50.0 °F 86% 29.91 in 10.0 mi SW 5.8 mph - N/A   Clear
2:53 AM 53.1 °F 50.0 °F 89% 29.91 in 10.0 mi SW 8.1 mph - N/A   Clear
3:53 AM 52.0 °F 50.0 °F 93% 29.91 in 10.0 mi SW 8.1 mph - N/A   Clear
4:53 AM 52.0 °F 48.9 °F 89% 29.93 in 10.0 mi WSW 6.9 mph - N/A   Clear
5:53 AM 51.1 °F 50.0 °F 96% 29.94 in 10.0 mi WSW 8.1 mph - N/A   Clear
6:53 AM 52.0 °F 50.0 °F 93% 29.96 in 10.0 mi WSW 10.4 mph - N/A   Clear
7:53 AM 55.9 °F 52.0 °F 87% 29.96 in 10.0 mi West 12.7 mph - N/A   Clear
8:53 AM 60.1 °F 53.1 °F 78% 29.97 in 10.0 mi West 17.3 mph - N/A   Clear
9:53 AM 63.0 °F 55.0 °F 75% 29.98 in 10.0 mi WSW 16.1 mph - N/A   Clear
10:53 AM 66.0 °F 53.1 °F 63% 29.99 in 10.0 mi WNW 19.6 mph 27.6 mph N/A   Clear
11:53 AM 69.1 °F 52.0 °F 54% 29.98 in 10.0 mi WNW 17.3 mph 25.3 mph N/A   Clear
12:53 PM 71.1 °F 53.1 °F 53% 29.97 in 10.0 mi West 15.0 mph 29.9 mph N/A   Clear
1:53 PM 72.0 °F 52.0 °F 49% 29.97 in 10.0 mi West 23.0 mph 31.1 mph N/A   Clear
2:53 PM 73.0 °F 54.0 °F 51% 29.97 in 10.0 mi West 19.6 mph 26.5 mph N/A   Partly Cloudy
3:53 PM 73.0 °F 54.0 °F 51% 29.97 in 10.0 mi WNW 18.4 mph 28.8 mph N/A   Scattered Clouds
4:53 PM 73.0 °F 54.0 °F 51% 29.96 in 10.0 mi West 15.0 mph - N/A   Scattered Clouds
5:53 PM 72.0 °F 54.0 °F 53% 29.96 in 10.0 mi West 15.0 mph - N/A   Clear
6:53 PM 70.0 °F 55.0 °F 59% 29.96 in 10.0 mi West 11.5 mph - N/A   Clear
7:53 PM 63.0 °F 55.0 °F 75% 29.96 in 10.0 mi West 8.1 mph - N/A   Clear
8:53 PM 61.0 °F 55.0 °F 81% 29.97 in 10.0 mi Calm Calm - N/A   Clear
9:53 PM 57.9 °F 54.0 °F 87% 29.98 in 10.0 mi Calm Calm - N/A   Clear
10:53 PM 55.9 °F 54.0 °F 93% 29.99 in 10.0 mi Calm Calm - N/A   Clear
11:53 PM 55.0 °F 53.1 °F 93% 29.99 in 10.0 mi Calm Calm - N/A   Clear